LEMUR-2-ZACHARY

Last updated on Wed Feb 14 2018 16:20:51 GMT+0000 (Coordinated Universal Time)

1 42845U 17042W 18044.79263270 .00000416 00000-0 46535-4 0 9998 2 42845 97.6020 311.8989 0011650 250.1217 109.8748 14.91828291 31960
UTC large
Height (km)
Speed (km/s)
/
Latitude / Longitude
Inclination (degrees)
Orbital Period (minutes)
Azimuth
Elevation
Range (km)
Doppler Factor

Next 0 passes for location: London (51.5072 / 0.1276)

Sorry there are no passes over London.